Location: Unspecified
(0.0000°N, 0.0000°E)
Time: 15:53:34
(UTC+00:00)

STARLINK-5700 - Visible Passes

Search period start: 14 January 2026 00:00
Search period end: 24 January 2026 00:00
Orbit: 558 x 560 km, 43.0° (Epoch: 14 January)

Date Brightness Start Highest point End Pass type
(mag) Time Alt. Az. Time Alt. Az. Time Alt. Az.
21 Jan 5.7 19:53:25 10° NNW 19:54:28 17° NNW 19:54:28 17° NNW visible
22 Jan 3.8 19:50:13 10° NW 19:53:46 63° NW 19:53:46 63° NW visible
23 Jan 4.4 19:47:17 10° WNW 19:51:22 51° SW 19:53:28 26° SSE visible
